Find Kosmos-2310

NORAD ID: 23526 Int'l Des: 1995-012 Owner: VMFR Country: RU operational
LEOCIRCULARPOLAR

リアルタイム位置

3D地球を読み込み中...

Kosmos-2310について

説明を読み込み中...

次回通過

Passes for default location (London). Set your location on the main map for personalized predictions.

高度履歴

Loading altitude history...

軌道要素

1 23526U 95012A 26104.62940436 .00000042 00000-0 29591-4 0 9998
2 23526 82.9499 195.6852 0023770 109.7756 3.9388 13.72328041555200
Epoch: Apr 14, 2026 • Age: 15 hours

現在のステータス

高度 1007.1 km
速度 7.34 km/s
衛星直下点 -15.60°S, 103.58°W
打ち上げ日 Mar 22, 1995
運用期間 31 years
タイプ other

技術仕様

分類 Payload
質量 800.00 kg
乾燥質量 800.00 kg
総質量 800.00 kg
長さ 5.00 m
直径 2.10 m
スパン 17.00 m
形状 Cyl + Ant
製造者 POL
バスタイプ KAUR-1 11F627
フェーズステータス In Orbit
所有者/国 VMFR/RU

Most Searched